Lapse_Rate
1.4 1.2 1.1 1.0 0.7 0.6 0.7 0.9 0.7 0.5 0.2 -0.1 -0.2 -0.2 -0.3 -0.6 3.0 3.9 3.8 4.3 3.7 3.7 2.3 1.8 4.5 4.8 4.0 3.7 3.0 2.5 6.5 6.5 6.5 6.5 6.5 4.8 6.1 4.9 4.4 3.4 4.4 3.0 1.8 2.1 -0.1
1.1 0.9 0.8 0.8 0.7 0.7 0.7 0.8 0.5 0.3 -0.1 -0.3 -0.3 -0.5 -0.7 -1.0 4.1 4.7 5.7 4.3 3.6 3.1 3.4 4.6 5.3 4.9 2.8 3.9 2.7 4.1 6.5 6.5 6.1 6.0 6.5 5.2 5.3 4.2 5.2 5.2 5.0 3.0 1.4 0.3 -0.1
0.7 0.6 0.8 0.7 0.7 0.8 0.9 0.6 0.1 -0.1 -0.2 -0.3 -0.4 -0.5 -0.6 -1.0 5.6 5.5 5.7 4.9 3.4 3.3 2.9 4.0 4.8 5.2 5.0 4.7 4.5 6.0 6.5 6.4 6.1 5.7 4.9 5.2 5.7 4.1 4.7 6.5 3.5 1.9 0.3 -0.7 0.2
0.7 0.8 0.7 0.5 0.7 0.8 0.9 0.4 0.0 -0.1 -0.2 -0.5 -0.5 -0.5 -0.5 2.4 6.5 5.2 5.4 5.5 4.4 3.0 3.7 5.2 5.2 4.5 5.6 6.5 5.1 6.5 6.1 6.1 6.1 5.3 4.9 5.6 4.3 5.4 3.7 4.2 3.1 1.4 -0.3 -1.2 0.0
0.5 0.7 0.5 0.7 0.8 0.8 0.5 0.1 0.1 0.5 0.0 -0.3 0.1 0.3 2.8 5.6 5.3 5.8 5.7 5.3 5.0 5.5 3.8 5.3 5.2 4.2 6.5 5.9 5.9 6.4 6.3 5.8 5.4 5.1 5.4 4.5 5.2 5.0 3.9 2.0 2.3 -0.3 -0.8 -0.9 -0.5
0.4 0.5 0.5 0.6 0.6 0.4 0.1 0.0 0.4 1.0 0.5 0.7 0.3 1.5 5.0 5.9 5.5 5.1 4.6 5.1 4.0 5.2 3.8 3.7 4.2 3.4 4.3 5.9 6.4 5.8 5.9 6.0 5.8 5.8 5.8 6.2 6.0 5.7 3.6 1.7 0.8 -0.0 -0.9 -1.1 -0.4
0.4 0.6 0.6 0.6 0.2 0.2 0.3 0.9 1.1 0.9 0.7 0.9 0.5 2.3 5.3 5.1 4.9 4.8 5.1 5.5 4.9 5.2 5.3 4.2 4.0 5.4 4.2 6.2 4.9 5.0 6.5 6.3 5.8 5.9 6.3 5.9 6.5 6.5 3.2 1.0 0.8 -0.6 -1.1 -0.7 -0.6
0.6 0.5 0.5 0.2 0.1 0.6 1.5 1.8 1.4 1.3 1.5 1.3 1.1 3.8 4.6 5.4 5.1 5.7 5.5 5.8 5.0 5.5 5.3 4.8 3.0 2.6 4.9 4.4 5.6 6.5 6.5 6.5 6.5 5.8 6.0 6.3 6.5 6.2 1.9 1.3 1.3 -0.3 -1.7 -1.1 -1.0
0.7 0.5 0.4 0.4 1.5 1.6 1.7 1.3 1.7 1.7 1.4 1.2 4.0 5.2 5.1 5.9 5.9 5.8 5.4 5.9 4.7 5.3 5.2 5.3 3.5 4.0 5.3 6.5 6.5 6.5 6.5 6.5 6.5 5.4 6.5 6.5 6.5 6.0 1.9 1.9 2.4 -0.0 -1.3 -1.2 -0.8
0.6 0.6 0.6 1.3 1.7 1.2 1.5 0.7 2.6 2.5 3.1 3.6 4.8 5.4 5.7 6.1 5.9 5.6 5.3 5.5 5.6 5.2 4.9 4.9 1.9 6.4 6.6 6.5 6.5 6.5 6.5 6.5 6.5 6.5 6.5 6.5 6.5 6.4 3.8 2.4 1.8 0.5 -0.7 -1.0 -0.1
0.8 0.8 1.5 2.0 2.3 1.0 0.9 2.4 3.6 4.6 4.3 5.9 5.7 5.7 5.9 5.6 5.3 5.8 4.9 5.4 5.5 4.4 6.5 5.4 6.5 6.5 6.5 6.5 6.5 6.5 6.5 6.5 6.5 6.5 6.5 6.5 6.5 6.5 5.2 3.0 3.0 1.8 0.1 -0.1 -0.4
1.4 2.3 2.4 2.3 1.9 1.0 0.7 3.2 4.3 4.6 4.7 4.6 5.1 5.4 5.5 5.5 5.7 5.9 5.6 5.9 6.0 6.5 6.3 6.5 6.5 6.5 6.5 6.5 6.5 6.5 6.5 6.5 6.5 6.5 6.5 6.5 6.5 6.5 6.0 5.0 2.4 2.8 1.7 0.2 0.0
2.6 2.7 2.6 2.6 2.2 2.3 3.0 3.7 2.9 3.8 4.8 4.7 5.6 6.0 6.0 6.0 5.8 5.4 5.7 5.0 6.2 6.5 6.5 6.5 6.5 6.2 6.5 6.5 6.5 6.5 6.5 6.5 6.5 6.5 6.5 6.5 6.5 6.5 6.4 5.4 4.0 1.5 0.6 -0.0 -0.3
2.5 3.0 3.0 3.2 3.8 2.5 3.6 2.8 2.9 3.8 6.5 6.5 6.3 6.3 6.1 5.9 5.9 5.4 4.8 5.6 6.2 6.5 6.5 6.5 6.4 6.5 6.5 6.5 6.5 6.5 6.5 6.5 6.5 6.5 6.5 6.5 6.5 6.5 6.5 6.5 6.5 2.4 0.2 -1.3 -2.8
1.6 1.4 2.2 3.1 3.0 3.4 4.0 2.5 2.7 3.2 6.5 6.5 6.3 6.3 5.7 6.0 5.9 6.1 5.1 5.7 6.5 6.5 6.5 6.5 6.5 6.5 6.5 6.5 6.5 6.5 6.5 6.5 6.5 6.5 6.5 6.5 6.5 6.5 6.5 6.5 6.5 4.8 -0.3 -2.5 -3.6
0.4 1.6 1.3 2.5 1.6 3.0 2.3 2.5 2.8 6.5 6.5 6.5 6.2 6.4 6.4 6.1 6.1 5.7 5.8 5.7 5.7 6.5 6.5 6.5 5.9 6.4 6.5 6.5 6.5 6.5 6.5 6.5 6.5 6.5 6.5 6.5 6.5 6.5 6.5 6.5 6.5 5.2 0.5 -1.8 -3.3
0.5 1.8 1.5 2.5 3.8 2.2 1.8 2.5 6.5 6.5 6.5 6.5 6.5 6.5 6.5 6.5 6.5 6.4 6.5 6.5 6.5 6.5 6.5 6.5 6.5 6.4 6.2 6.5 6.5 6.5 6.5 6.5 6.5 6.5 6.5 6.5 6.5 6.5 6.5 6.5 6.5 6.2 1.8 -1.4 -2.6
1.3 1.2 2.5 3.0 2.6 2.3 1.8 6.1 6.5 6.5 6.5 6.5 6.5 6.5 6.5 6.5 6.5 6.5 6.5 6.5 6.5 6.5 6.5 6.5 6.5 6.5 6.5 6.5 6.5 6.5 6.5 6.5 6.5 6.5 6.5 6.5 6.5 6.5 6.5 4.6 3.2 1.5 0.5 -0.4 -1.8
2.0 0.9 1.7 1.7 2.8 1.4 2.8 6.5 6.5 6.5 6.5 6.5 6.5 6.5 6.5 6.5 6.5 6.5 6.5 6.5 6.5 6.5 6.5 6.5 6.5 6.5 6.5 6.5 6.5 6.5 6.5 6.5 6.5 6.5 6.5 6.5 6.5 6.5 6.5 6.5 5.0 3.3 1.8 -0.5 -1.7
0.8 1.8 2.4 2.5 2.7 2.0 5.7 6.5 6.5 6.1 6.4 6.5 6.5 6.5 6.5 6.5 6.5 6.5 6.5 6.5 6.5 6.3 6.1 6.5 6.5 6.5 6.5 6.3 6.3 6.5 6.5 6.5 6.5 6.5 6.5 6.5 6.5 6.5 6.5 6.5 6.5 6.3 2.8 -0.6 -1.6
1.0 3.2 2.9 2.2 2.1 2.4 6.5 6.5 6.5 5.8 5.8 6.5 6.5 6.5 6.5 6.5 6.5 6.5 6.5 6.5 6.4 6.5 6.1 6.5 6.5 6.5 6.5 6.5 6.5 6.5 6.5 6.5 6.5 6.5 6.5 6.5 6.5 6.5 6.5 6.5 6.5 6.0 1.1 -0.4 -0.9
0.9 5.4 2.4 2.0 4.3 4.1 6.5 6.5 5.4 6.2 5.4 6.3 6.4 6.5 6.5 6.5 6.5 6.5 6.5 6.5 5.4 5.5 6.5 6.5 6.5 6.5 6.5 6.5 6.5 6.5 6.5 6.5 6.5 6.5 6.5 6.5 6.5 6.5 6.5 6.5 5.1 3.7 1.0 -1.6 -1.6
1.8 2.0 1.9 2.7 6.5 6.5 5.9 6.5 6.1 6.5 6.4 6.5 6.5 6.4 6.4 6.5 6.5 6.5 6.5 6.0 5.5 6.3 6.5 6.5 6.5 6.5 6.5 6.5 6.5 6.5 6.5 6.5 6.5 6.5 6.5 6.5 6.5 6.5 6.1 6.1 3.9 2.7 0.0 -1.1 -1.1
1.3 6.5 2.6 1.2 2.5 6.3 6.5 6.5 6.5 5.7 6.1 5.8 6.3 6.3 6.5 6.5 6.5 6.5 6.5 6.4 5.7 6.0 5.3 5.4 6.5 6.5 6.5 6.5 6.5 6.5 6.5 6.5 6.5 6.5 6.5 6.5 6.5 6.5 6.5 6.5 6.3 3.0 0.9 -0.1 -0.6
1.0 4.7 4.9 6.5 5.8 6.0 6.3 6.5 6.5 6.5 6.1 5.9 6.5 6.5 6.5 6.5 6.5 6.5 6.5 6.5 6.2 6.3 6.1 6.5 6.5 6.5 6.5 6.5 6.5 6.5 6.5 6.5 6.5 6.5 6.5 6.5 6.5 6.5 6.5 6.5 6.2 3.7 2.4 1.9 2.5
3.1 4.0 3.0 4.0 4.4 6.4 6.2 6.5 6.5 6.5 6.4 6.5 6.5 6.5 6.5 6.5 6.5 6.5 6.5 6.5 6.5 6.3 6.5 6.4 6.5 6.5 6.5 6.5 6.5 6.5 6.5 6.5 6.5 6.5 6.5 6.5 6.5 6.5 6.3 6.3 6.0 4.1 3.5 1.8 1.2
2.1 2.3 3.8 4.7 5.7 6.5 6.5 6.5 6.5 6.0 6.0 6.0 6.0 6.5 6.5 6.2 4.2 3.8 4.2 4.6 5.2 6.4 6.5 6.5 6.5 6.5 6.5 6.5 6.5 6.5 6.5 6.5 6.5 6.5 6.5 6.5 6.5 6.5 6.5 6.5 4.5 3.1 3.2 2.1 1.6
Wind_Speed
3 2 4 6 6 5 7 9 10 13 15 16 16 17 18 19 9 3 4 5 6 12 6 6 2 1 4 3 5 3 4 2 5 7 5 5 5 1 1 6 3 5 5 2 14
4 2 4 6 7 6 8 10 12 15 15 15 15 16 16 14 1 3 4 11 12 6 1 2 3 3 3 3 3 4 4 7 5 5 4 6 5 8 4 4 5 4 1 5 15
3 4 4 6 7 8 8 11 14 16 15 15 16 16 16 8 2 2 8 15 12 5 3 0 1 3 3 3 4 1 4 2 3 3 5 6 4 5 7 6 8 10 7 11 14
4 5 6 6 8 8 10 12 13 14 15 15 15 16 16 2 2 3 10 14 7 5 1 1 3 3 3 0 2 1 1 2 1 1 5 6 6 4 8 7 5 10 9 13 18
4 7 6 7 9 10 12 14 14 13 14 14 14 16 1 2 4 3 11 13 4 2 3 0 3 4 4 3 1 2 1 2 2 4 1 5 5 9 9 11 1 7 11 16 17
5 7 7 8 10 13 15 16 15 15 14 12 11 12 0 2 0 4 8 6 6 4 5 5 3 4 5 2 1 2 1 2 2 0 1 3 3 3 6 4 8 9 12 13 16
6 7 8 10 13 14 16 17 18 17 14 11 7 2 1 6 1 5 4 1 3 2 2 2 3 3 4 4 3 4 1 4 4 3 2 2 7 12 8 4 8 10 9 11 14
7 8 11 13 14 16 18 21 21 19 14 6 5 1 4 2 3 3 3 2 3 2 3 3 7 7 4 4 4 3 3 3 2 6 1 4 10 6 8 9 11 10 9 10 14
7 9 13 14 15 17 21 23 20 14 10 7 1 1 6 3 1 2 0 2 4 1 2 3 5 4 3 4 4 5 3 3 7 8 3 5 9 4 3 7 9 9 10 12 11
8 11 13 15 17 18 22 15 7 8 2 2 1 3 2 2 2 3 1 1 1 3 4 5 5 3 3 4 3 3 4 5 6 4 4 4 18 16 7 8 13 10 9 11 13
9 11 13 15 16 17 9 3 5 4 5 3 2 3 2 4 1 1 2 3 1 6 0 2 3 5 8 7 3 2 4 6 5 3 4 8 16 21 10 7 11 13 11 13 16
8 11 13 16 16 8 2 4 2 2 5 2 3 4 3 2 3 3 2 1 1 2 1 4 6 6 3 5 4 4 4 6 6 2 5 8 16 18 10 9 10 16 14 16 13
9 12 14 17 8 3 3 1 1 2 1 5 3 3 3 3 2 3 1 1 3 2 4 6 3 4 3 2 3 3 5 4 5 5 4 7 10 6 2 4 5 8 10 10 16
12 13 17 14 4 0 1 4 1 2 4 4 2 2 2 2 3 1 1 2 1 4 3 5 2 3 2 3 6 4 4 2 3 3 4 4 6 7 4 8 6 10 10 14 13
15 15 15 6 4 2 1 3 1 3 3 2 2 1 1 3 3 0 1 3 3 3 3 6 4 4 4 5 6 6 1 0 0 1 3 1 1 9 4 7 12 12 12 12 13
16 14 13 3 2 0 3 2 4 5 5 1 1 1 1 1 1 1 1 2 0 2 2 7 1 5 7 2 2 3 2 4 4 2 2 5 6 6 5 8 5 6 10 12 11
17 14 3 2 1 2 2 3 5 3 2 2 2 2 2 2 2 3 1 2 3 2 3 4 4 1 2 2 2 4 5 4 4 1 6 2 3 10 10 9 7 8 10 11 9
16 6 1 0 1 2 3 5 2 3 5 0 1 0 3 2 3 1 2 3 4 3 1 2 6 6 3 4 5 5 6 5 5 3 5 2 6 7 8 8 8 10 10 8 9
7 3 2 3 2 3 5 2 6 6 2 2 0 1 2 1 2 1 4 4 5 8 7 3 5 1 1 1 2 2 4 2 1 1 2 5 8 10 9 10 8 11 8 11 10
2 2 2 6 2 4 4 5 4 3 1 1 2 4 3 2 1 1 2 4 2 4 1 2 5 0 1 1 2 3 3 2 2 4 6 6 5 7 9 9 9 9 11 11 9
3 2 2 7 3 4 3 6 4 3 1 3 2 2 4 3 4 3 4 4 2 3 3 4 3 3 2 6 7 2 3 2 2 4 4 4 6 6 7 8 9 11 10 11 11
2 1 3 2 3 1 3 4 3 3 1 2 2 6 5 2 3 5 7 6 3 4 4 1 4 4 10 1 3 4 6 6 4 5 5 2 10 8 12 9 7 12 11 10 9
1 2 2 4 2 2 4 4 3 2 3 3 3 5 3 4 3 6 3 1 3 4 5 4 1 4 9 2 2 4 5 5 2 2 7 4 11 3 7 9 8 9 11 10 9
2 2 4 4 1 4 1 3 3 1 3 3 2 2 1 3 4 5 3 0 1 2 4 2 4 7 12 10 3 4 5 5 5 2 9 9 32 23 27 24 24 10 11 11 10
3 2 1 2 2 2 2 1 2 2 2 2 1 5 6 3 2 5 4 2 1 0 2 3 6 6 11 13 10 13 11 9 10 17 11 32 25 25 27 25 23 8 8 9 15
3 2 2 1 2 1 1 2 4 3 4 4 5 4 5 6 8 8 4 1 6 2 4 0 5 3 8 9 11 16 9 16 20 23 17 25 30 27 28 24 18 13 12 10 12
0 1 3 2 1 3 4 4 1 5 3 2 4 1 3 9 7 8 5 6 6 7 8 6 4 2 18 1 6 9 9 18 12 6 5 9 21 22 17 18 8 11 7 11 12
Wind_Direction
265 250 274 289 302 317 313 308 322 319 324 329 329 331 327 328 336 15 40 258 287 306 334 301 54 23 39 59 38 117 66 202 216 155 238 150 157 163 99 130 220 200 161 281 143
277 266 290 295 302 303 307 313 323 321 324 326 331 329 325 327 25 18 271 319 307 279 307 32 353 38 40 16 17 82 126 224 182 188 208 185 171 167 165 174 236 251 215 115 144
306 308 288 288 290 303 311 318 324 321 324 328 333 326 321 318 25 277 328 338 332 211 207 217 230 81 68 36 1 102 195 199 218 222 179 178 176 180 152 228 212 208 170 160 165
304 290 278 289 297 306 313 317 314 318 324 330 334 324 324 229 243 253 332 344 358 130 196 138 85 86 93 55 20 7 310 271 303 190 143 169 145 216 201 228 193 216 161 162 178
313 287 291 298 305 311 311 307 308 318 324 332 332 330 357 0 259 314 338 349 2 59 41 174 135 129 156 119 58 116 240 339 342 169 129 126 216 219 242 234 126 123 153 178 189
308 298 305 307 311 311 305 304 311 318 318 328 328 336 65 296 235 343 351 355 9 39 14 23 148 125 106 84 146 104 66 321 313 332 169 196 259 128 263 222 158 161 185 190 195
307 301 312 314 305 305 305 309 310 313 315 321 332 7 66 227 26 332 5 345 357 24 86 348 162 74 128 105 159 138 331 310 224 210 259 129 280 232 224 143 191 201 199 201 207
309 322 316 308 309 308 312 309 309 309 307 296 331 87 243 316 335 334 353 330 0 23 105 158 90 99 78 118 39 14 63 352 203 154 246 120 270 263 199 166 224 215 214 213 211
317 323 311 306 307 310 313 308 309 302 287 280 128 108 277 329 344 300 100 319 317 12 16 99 66 88 57 84 15 12 262 233 310 199 131 182 272 254 153 195 240 225 221 222 228
328 314 309 309 310 315 315 300 310 322 76 141 66 42 311 260 291 325 324 41 347 337 15 48 49 74 40 83 237 263 274 261 251 217 208 220 262 264 241 203 232 234 228 226 230
322 318 323 318 314 318 335 16 21 337 39 206 217 238 271 295 332 275 32 4 69 57 209 6 60 233 226 199 190 214 217 259 262 213 193 240 258 269 253 222 235 238 233 231 230
332 332 328 321 319 321 55 79 159 194 311 238 238 266 240 146 333 281 28 51 65 243 230 9 241 236 200 166 206 230 274 271 274 158 187 285 273 267 246 227 210 226 229 232 234
343 339 333 322 321 62 77 74 330 130 100 304 225 223 223 141 236 257 63 120 216 249 207 183 239 141 168 209 218 239 210 246 247 327 244 318 285 304 293 253 235 233 231 234 228
341 340 341 325 81 237 45 326 16 128 56 274 258 291 93 115 294 171 67 161 261 236 218 230 284 188 205 253 156 271 192 210 290 19 267 39 289 304 314 282 247 249 223 235 231
341 342 350 16 149 86 238 322 140 61 354 193 215 258 78 155 309 321 360 53 231 234 116 254 185 205 213 220 170 232 112 275 286 203 355 256 234 270 337 280 252 242 234 235 228
342 337 347 354 50 35 331 40 51 46 259 276 95 315 357 177 267 342 11 55 31 289 255 238 226 181 205 142 162 116 52 44 57 78 296 231 177 268 223 221 258 242 238 236 227
337 330 343 140 195 331 60 49 36 149 331 214 226 183 215 252 274 182 225 275 200 339 327 318 231 163 146 127 50 80 56 321 325 344 232 121 183 253 279 250 236 254 254 248 243
334 337 126 164 26 87 60 52 199 242 226 272 124 162 226 179 251 236 287 284 215 134 52 255 315 183 168 203 186 180 162 171 259 243 275 308 243 254 241 282 257 265 256 276 252
357 6 26 336 3 69 77 106 215 212 216 175 79 133 284 272 234 344 221 230 230 178 178 183 273 87 121 44 130 169 196 208 232 47 16 241 289 294 287 284 262 261 265 254 246
60 42 286 322 27 65 88 230 237 227 131 76 222 174 236 252 227 161 248 214 255 187 89 254 299 83 58 97 55 174 169 57 15 273 266 279 278 245 297 305 313 283 255 263 260
57 57 267 343 73 57 183 229 265 231 158 167 237 278 239 264 215 225 257 275 186 157 142 159 150 286 18 204 189 116 250 200 157 171 232 279 257 223 256 261 274 275 267 259 255
80 31 304 18 72 33 177 210 261 228 120 217 188 203 214 205 253 235 227 225 106 145 169 224 158 255 230 256 155 175 211 164 161 246 239 209 262 255 246 263 254 279 281 279 260
73 264 321 85 171 247 281 278 253 192 228 185 243 210 181 205 251 207 246 103 104 149 176 185 258 330 328 45 11 220 209 199 104 69 219 261 273 294 287 288 261 260 278 276 273
80 359 327 48 27 146 203 262 272 340 256 183 231 128 138 249 226 285 265 123 133 172 125 130 186 200 252 247 177 221 221 194 173 180 274 220 277 283 283 284 287 267 259 271 275
41 247 184 278 308 210 195 265 239 286 207 214 274 214 188 235 254 239 258 295 188 131 104 162 229 215 248 258 263 263 260 242 208 236 236 274 262 284 280 287 293 275 275 282 281
131 132 13 242 321 205 208 270 221 269 211 253 206 262 190 217 210 253 210 166 233 32 175 23 256 240 270 254 253 266 250 249 252 259 252 265 283 266 277 279 288 281 282 277 279
173 26 112 280 74 120 223 225 12 7 293 273 243 274 242 243 242 243 232 230 217 173 200 180 207 179 277 286 320 290 218 230 247 212 212 253 269 294 295 306 276 280 271 272 284